Location: Newark
(11.0594°S, 77.5318°W)
Time: 22:11:41
(UTC+00:00)

OTV 5 (USA 277) - Visible Passes

Search period start: 15 July 2019 00:00
Search period end: 25 July 2019 00:00
Orbit: 299 x 335 km, 54.5° (Epoch: 13 July)

Date Brightness Start Highest point End Pass type
(mag) Time Alt. Az. Time Alt. Az. Time Alt. Az.
21 Jul ? 00:29:03 10° NNW 00:29:55 17° N 00:29:55 17° N visible
22 Jul ? 00:43:33 10° NW 00:44:49 22° WNW 00:44:49 22° WNW visible
22 Jul ? 10:26:13 10° SSE 10:27:19 12° SE 10:28:25 10° E visible
22 Jul ? 23:24:40 10° NNE 23:26:35 17° ENE 23:28:30 10° ESE visible
23 Jul ? 10:39:52 15° SSW 10:41:53 58° ESE 10:44:27 10° NE visible
23 Jul ? 23:38:17 10° NNW 23:41:03 90° ENE 23:43:45 11° SSE visible
24 Jul ? 10:54:47 13° WSW 10:56:22 21° WNW 10:58:26 10° N visible
24 Jul ? 23:53:37 10° W 23:55:36 18° SW 23:57:35 10° S visible
